Location: Newark
(45.8667°N, 9.7333°E)
Time: 06:17:03
(UTC+00:00)

A-11 Canister half - Pass Details

Date: 27 January 2020
Orbit: 1517 x 1683 km, 47.2° (Epoch: 17 February)

Event Time Altitude Azimuth Distance (km) Brightness Sun altitude
Rises 06:15:27 0° 289° (WNW) 4,665 - -6.3°
Exits shadow 06:17:50 - 281° (WNW) 4,055 10.5 -5.9°
Reaches altitude 10° 06:19:29 10° 274° (W) 3,683 10.4 -5.6°
Maximum altitude 06:25:38 20° 232° (SW) 2,970 10.3 -4.6°
Drops below altitude 10° 06:31:53 10° 189° (S) 3,721 11.2 -3.6°
Sets 06:36:01 0° 174° (S) 4,727 12.0 -2.9°
